Location: Asheville, NC
(35.6000°N, 82.5500°W)
Time: 17:15:59
(UTC-04:00)

Vanguard 2 Rocket - Pass Details

Date: 13 March 2018
Orbit: 553 x 3327 km, 32.9° (Epoch: 17 June)

Event Time Altitude Azimuth Distance (km) Brightness Sun altitude
Rises 16:29:03 0° 209° (SSW) 2,941 10.4 34.9°
Reaches altitude 10° 16:32:43 10° 178° (S) 1,852 9.0 34.3°
Maximum altitude 16:34:26 12° 152° (SSE) 1,666 8.5 34.0°
Drops below altitude 10° 16:36:08 10° 126° (SE) 1,817 8.4 33.8°
Sets 16:39:38 0° 95° (E) 2,823 9.0 33.2°
